TimeMST,TemperatureF,Dew PointF,Humidity,Sea Level PressureIn,VisibilityMPH,Wind Direction,Wind SpeedMPH,Gust SpeedMPH,PrecipitationIn,Events,Conditions,WindDirDegrees,DateUTC
12:15 AM,8.6,-2.2,62,30.10,10.0,SSE,6.9,-,N/A,,Clear,160,2012-12-20 07:15:00
12:35 AM,10.4,1.4,67,30.10,10.0,South,3.5,-,N/A,,Clear,190,2012-12-20 07:35:00
12:55 AM,6.8,-5.8,56,30.10,10.0,SSE,6.9,-,N/A,,Clear,160,2012-12-20 07:55:00
1:15 AM,8.6,1.4,73,30.10,10.0,South,5.8,-,N/A,,Clear,180,2012-12-20 08:15:00
1:35 AM,6.8,-2.2,67,30.10,10.0,South,8.1,-,N/A,,Clear,190,2012-12-20 08:35:00
1:55 AM,6.8,-0.4,72,30.10,10.0,South,6.9,-,N/A,,Clear,180,2012-12-20 08:55:00
2:15 AM,6.8,-2.2,67,30.10,10.0,South,6.9,-,N/A,,Clear,170,2012-12-20 09:15:00
2:35 AM,8.6,-2.2,62,30.10,10.0,South,6.9,-,N/A,,Clear,190,2012-12-20 09:35:00
2:55 AM,10.4,-0.4,62,30.10,10.0,SSW,5.8,-,N/A,,Clear,200,2012-12-20 09:55:00
3:15 AM,8.6,-4.0,57,30.11,10.0,Calm,Calm,-,N/A,,Clear,0,2012-12-20 10:15:00
3:35 AM,6.8,-5.8,56,30.12,10.0,North,4.6,-,N/A,,Clear,10,2012-12-20 10:35:00
3:55 AM,3.2,-2.2,78,30.10,10.0,ENE,5.8,-,N/A,,Clear,70,2012-12-20 10:55:00
4:15 AM,1.4,-5.8,72,30.10,10.0,Calm,Calm,-,N/A,,Clear,0,2012-12-20 11:15:00
4:35 AM,5.0,1.4,85,30.10,10.0,SSW,6.9,-,N/A,,Clear,210,2012-12-20 11:35:00
4:55 AM,5.0,-0.4,78,30.10,10.0,Calm,Calm,-,N/A,,Clear,0,2012-12-20 11:55:00
5:15 AM,6.8,-0.4,72,30.11,10.0,Calm,Calm,-,N/A,,Clear,0,2012-12-20 12:15:00
5:55 AM,5.0,-2.2,72,30.12,10.0,Calm,Calm,-,N/A,,Clear,0,2012-12-20 12:55:00
6:15 AM,1.4,-9.4,61,30.13,10.0,South,4.6,-,N/A,,Clear,180,2012-12-20 13:15:00
6:35 AM,6.8,3.2,85,30.13,10.0,South,6.9,-,N/A,,Clear,170,2012-12-20 13:35:00
6:55 AM,1.4,-4.0,78,30.14,10.0,South,6.9,-,N/A,,Clear,190,2012-12-20 13:55:00
7:15 AM,5.0,3.2,92,30.14,10.0,South,6.9,-,N/A,,Clear,180,2012-12-20 14:15:00
7:35 AM,6.8,1.4,79,30.15,10.0,ESE,4.6,-,N/A,,Clear,120,2012-12-20 14:35:00
7:55 AM,8.6,-0.4,67,30.15,10.0,South,6.9,-,N/A,,Clear,170,2012-12-20 14:55:00
8:15 AM,10.4,1.4,67,30.16,10.0,SSE,3.5,-,N/A,,Clear,150,2012-12-20 15:15:00
8:35 AM,12.2,-0.4,57,30.16,10.0,Calm,Calm,-,N/A,,Clear,0,2012-12-20 15:35:00
8:55 AM,10.4,-0.4,62,30.17,10.0,Calm,Calm,-,N/A,,Clear,0,2012-12-20 15:55:00
9:15 AM,10.4,3.2,73,30.18,10.0,NNE,5.8,-,N/A,,Clear,30,2012-12-20 16:15:00
9:35 AM,12.2,6.8,79,30.18,10.0,NNE,4.6,-,N/A,,Clear,20,2012-12-20 16:35:00
9:55 AM,15.8,6.8,68,30.18,10.0,North,3.5,-,N/A,,Clear,360,2012-12-20 16:55:00
10:15 AM,17.6,6.8,63,30.18,10.0,NNE,3.5,-,N/A,,Clear,20,2012-12-20 17:15:00
10:35 AM,19.4,5.0,54,30.18,10.0,WNW,3.5,-,N/A,,Clear,300,2012-12-20 17:35:00
10:55 AM,19.4,6.8,58,30.18,10.0,WNW,3.5,-,N/A,,Clear,290,2012-12-20 17:55:00
11:15 AM,23.0,8.6,54,30.17,10.0,Calm,Calm,-,N/A,,Clear,0,2012-12-20 18:15:00
11:35 AM,26.6,10.4,51,30.16,10.0,Calm,Calm,-,N/A,,Clear,0,2012-12-20 18:35:00
11:55 AM,26.6,8.6,47,30.16,10.0,Calm,Calm,-,N/A,,Clear,0,2012-12-20 18:55:00
12:35 PM,32.0,8.6,38,30.15,10.0,Calm,Calm,-,N/A,,Clear,0,2012-12-20 19:35:00
12:55 PM,33.8,10.4,38,30.14,10.0,NNW,3.5,-,N/A,,Clear,340,2012-12-20 19:55:00
1:15 PM,33.8,10.4,38,30.14,10.0,SW,4.6,-,N/A,,Clear,230,2012-12-20 20:15:00
1:35 PM,33.8,12.2,41,30.14,10.0,SW,4.6,-,N/A,,Clear,220,2012-12-20 20:35:00
1:55 PM,37.4,15.8,41,30.14,10.0,East,6.9,-,N/A,,Clear,90,2012-12-20 20:55:00
2:35 PM,41.0,21.2,45,30.15,10.0,ESE,8.1,-,N/A,,Clear,110,2012-12-20 21:35:00
3:15 PM,42.8,21.2,42,30.15,10.0,Calm,Calm,-,N/A,,Clear,0,2012-12-20 22:15:00
3:35 PM,41.0,17.6,39,30.15,10.0,East,5.8,-,N/A,,Clear,90,2012-12-20 22:35:00
3:55 PM,41.0,15.8,36,30.16,10.0,SSE,5.8,-,N/A,,Clear,160,2012-12-20 22:55:00
4:15 PM,39.2,15.8,39,30.16,10.0,SE,3.5,-,N/A,,Clear,140,2012-12-20 23:15:00
4:35 PM,37.4,19.4,48,30.17,10.0,SSE,3.5,-,N/A,,Clear,160,2012-12-20 23:35:00
5:15 PM,35.6,19.4,52,30.17,10.0,Calm,Calm,-,N/A,,Clear,0,2012-12-21 00:15:00
5:35 PM,35.6,19.4,52,30.17,10.0,SSW,5.8,-,N/A,,Clear,210,2012-12-21 00:35:00
6:15 PM,28.4,17.6,64,30.17,10.0,Calm,Calm,-,N/A,,Clear,0,2012-12-21 01:15:00
6:35 PM,30.2,15.8,55,30.17,10.0,West,3.5,-,N/A,,Clear,280,2012-12-21 01:35:00
6:55 PM,30.2,14.0,51,30.17,10.0,Calm,Calm,-,N/A,,Clear,0,2012-12-21 01:55:00
7:15 PM,32.0,14.0,48,30.17,10.0,SSE,4.6,-,N/A,,Clear,150,2012-12-21 02:15:00
7:35 PM,33.8,12.2,41,30.18,10.0,North,4.6,-,N/A,,Clear,10,2012-12-21 02:35:00
7:55 PM,28.4,12.2,51,30.17,10.0,ENE,8.1,-,N/A,,Clear,70,2012-12-21 02:55:00
8:15 PM,30.2,14.0,51,30.17,10.0,East,6.9,-,N/A,,Clear,80,2012-12-21 03:15:00
8:35 PM,24.8,10.4,54,30.18,10.0,SSW,5.8,-,N/A,,Clear,200,2012-12-21 03:35:00
8:55 PM,24.8,15.8,69,30.18,10.0,SW,4.6,-,N/A,,Clear,220,2012-12-21 03:55:00
9:15 PM,24.8,14.0,64,30.17,10.0,Calm,Calm,-,N/A,,Clear,0,2012-12-21 04:15:00
9:35 PM,26.6,15.8,64,30.18,10.0,West,3.5,-,N/A,,Clear,260,2012-12-21 04:35:00
9:55 PM,26.6,14.0,59,30.18,10.0,WNW,3.5,-,N/A,,Clear,290,2012-12-21 04:55:00
10:15 PM,26.6,12.2,55,30.18,10.0,WNW,3.5,-,N/A,,Clear,300,2012-12-21 05:15:00
10:35 PM,28.4,12.2,51,30.18,10.0,NE,5.8,-,N/A,,Clear,40,2012-12-21 05:35:00
10:55 PM,24.8,12.2,59,30.18,10.0,NNE,8.1,-,N/A,,Clear,20,2012-12-21 05:55:00
11:55 PM,23.0,10.4,59,30.18,10.0,Calm,Calm,-,N/A,,Clear,0,2012-12-21 06:55:00